User: anonymous
Location: Caltech
(34.1382°N, 118.1253°W)
Time: 10:28:24
(UTC-07:00)
Language:

COSMOS 2428 - Orbit

View from above orbital plane
View from above orbital plane
View from above satellite
View from above satellite

Ground track
Ground track

The orbit data is extracted from the following two-line orbital elements,

1 31792U 07029A   14259.40549741  .00000352  00000-0  21674-3 0  9954
2 31792 070.9701 358.4109 0008502 331.8251 145.0872 14.12420431372197
Epoch (UTC): 16 September 2014 09:43:54
Eccentricity: 0.0008502
inclination: 70.9701°
perigee height: 845 km
apogee height: 857 km
right ascension of ascending node: 358.4109°
argument of perigee: 331.8251°
revolutions per day: 14.12420431
mean anomaly at epoch: 145.0872°
orbit number at epoch: 37219

The dashed part of the orbit path shows where the satellite is in the earth's shadow,  

DLR